Regional Weather Roundup
Issued by NWS Portland, ME

Home | Current Version | Previous Version | Text Only | Print | Product List | Glossary On
Versions: 1 2 3 4 5 6 7 8 9 10 11 12 13 14 15 16 17 18 19 20 21 22 23 24 25 26 27 28 29 30 31 32 33 34 35 36 37 38 39 40 41 42 43 44 45 46 47 48 49 50
000
ASUS41 KGYX 210610
RWRGYX
WEATHER ROUNDUP FOR MAINE AND NEW HAMPSHIRE
NATIONAL WEATHER SERVICE GRAY ME
200 AM EDT MON AUG 21 2017

MEZ002-005-006-010-012-015-018-020-021-024-026-027-029-210700-
MAINE

CITY           SKY/WX    TMP DP  RH WIND       PRES   REMARKS
PORTLAND       CLEAR     62  56  80 W5        30.08S
6HR MIN TEMP:  61; 6HR MAX TEMP:  74;

SANFORD        CLEAR     54  53  97 CALM      30.11R
BAR HARBOR     CLEAR     62  57  83 SW5       30.05R
WISCASSET      CLEAR     58  56  93 CALM      30.09R
6HR MIN TEMP:  58; 6HR MAX TEMP:  67;

ROCKLAND       CLEAR     58  55  90 CALM      30.06R
FRYEBURG       CLEAR     56  56 100 CALM      30.11R
6HR MIN TEMP:  55; 6HR MAX TEMP:  65;

AUGUSTA        CLEAR     64  56  75 SW3       30.08R
6HR MIN TEMP:  63; 6HR MAX TEMP:  71;

WATERVILLE     CLEAR     62  59  90 CALM      30.04R
BANGOR         CLEAR     64  57  78 W6        30.04S
6HR MIN TEMP:  62; 6HR MAX TEMP:  71;

GREENVILLE       N/A     60  58  92 CALM      30.05R
6HR MIN TEMP:  60; 6HR MAX TEMP:  65;

MILLINOCKET    CLEAR     63  60  90 CALM      30.02S
6HR MIN TEMP:  59; 6HR MAX TEMP:  69;

HOULTON        CLEAR     62  59  90 S5        29.97S
6HR MIN TEMP:  57; 6HR MAX TEMP:  64;

PRESQUE ISLE   CLEAR     63  59  87 W7        29.96S
6HR MIN TEMP:  61; 6HR MAX TEMP:  66;

FRENCHVILLE    PTCLDY    60  56  86 W6        29.94S
6HR MIN TEMP:  59; 6HR MAX TEMP:  65;

CARIBOU        CLEAR     61  57  87 SW3       29.94S
6HR MIN TEMP:  60; 6HR MAX TEMP:  67;

$$

NHZ002-005-008-009-011-012-014-210700-
NEW HAMPSHIRE

CITY           SKY/WX    TMP DP  RH WIND       PRES   REMARKS
PORTSMOUTH     CLEAR     64  58  81 W7        30.09S
ROCHESTER      CLEAR     58  54  86 CALM      30.10S
6HR MIN TEMP:  58; 6HR MAX TEMP:  71;

MANCHESTER     CLEAR     65  57  75 S5        30.11S
6HR MIN TEMP:  65; 6HR MAX TEMP:  76;

CONCORD        CLEAR     58  56  93 CALM      30.13R
6HR MIN TEMP:  57; 6HR MAX TEMP:  72;

LACONIA        CLEAR     59  57  93 W3        30.13R
PLYMOUTH       FOG       53  52  96 CALM      30.13S VSB 1/2
BERLIN         CLEAR     51  48  89 CALM      30.13R
6HR MIN TEMP:  51; 6HR MAX TEMP:  64;

WHITEFIELD     CLEAR     51  48  89 CALM      30.14R
6HR MIN TEMP:  51; 6HR MAX TEMP:  64;

JAFFREY        CLEAR     66  60  81 W5        30.17S
6HR MIN TEMP:  61; 6HR MAX TEMP:  67;

KEENE            N/A    N/A N/A N/A MISG        N/A
LEBANON        CLEAR     56  55  97 CALM      30.14R
6HR MIN TEMP:  56; 6HR MAX TEMP:  67;

MT WASHINGTON  FOG       46  46 100 NW53G61     N/A  VSB 1/16
6HR MIN TEMP:  46; 6HR MAX TEMP:  48;

$$

VTZ005-007-008-210700-
VERMONT

CITY           SKY/WX    TMP DP  RH WIND       PRES   REMARKS
ST JOHNSBURY     N/A     57  57 100 MISG      30.12R
MONTPELIER     CLEAR     56  55  97 CALM      30.18R
BURLINGTON     CLEAR     63  60  90 E3        30.11R
$$

MAZ007-012-024-CTZ003-RIZ002-NYZ038-NYZ072-210700-
SOUTHERN NEW ENGLAND AND NY

CITY           SKY/WX    TMP DP  RH WIND       PRES   REMARKS
BOSTON         CLEAR     72  59  63 W8        30.12S
WORCESTER      CLEAR     65  55  70 W10       30.16F
NANTUCKET      CLEAR     62  62 100 CALM      30.12S
PROVIDENCE     CLEAR     66  61  84 W5        30.14S
HARTFORD       CLEAR     64  60  87 CALM      30.15F
ALBANY         CLEAR     62  58  86 CALM      30.15S
NEW YORK CITY  PTCLDY    78  61  55 SW3       30.16R
$$

ANZ081-ANZ082-ANZ150-NHZ014-MEZ023>029-210700-
COASTAL MARINE OBSERVATIONS

STATION/POSITION TIME  TEMP    WIND        PRES    WAVE
                       AIR SEA DIR/SP/G            HT/PER
                 (UTC) (F)     (DEG/KT/KT) (MB)    (FT/S)
MOUNT DESERT ROC 0600   61                 1017.5R
MATINICUS ROCK   0500   65     260/ 14/ 14 1017.4R
ISLE OF SHOALS   0500   68     250/  9/  9 1018.8R
JEFFREYS LEDGE   0536      65                N/A     2/ 7
CASHES LEDGE BUO 0550   69 69              1018.5R   2/ 7
GEORGES BANK BUO 0450   65 64              1017.8    3/ 6
$$

.............KEY..............
   WCI - WIND CHILL
   TC  - TEMPERATURE IN CELSIUS
   VSB - VISIBILITY IN MILES
   HX  - HEAT INDEX
   FAIR- INDICATES FEW OR NO CLOUDS BELOW 12,000 FT, WITH NO
         SIGNIFICANT WEATHER AND/OR OBSTRUCTIONS TO VISIBILITY.






USA.gov is the U.S. government's official web portal to all federal, state and local government web resources and services.